Flag for Germany Weather past 2 weeks in Sonneberg, Thuringia, Germany

Now
66 °F

Passing clouds.


Feels Like: 66 °F
Forecast: 47 / 66 °F
Wind: 6 mph from Southeast

Location: Hof Airport

Current Time: Sep 17, 2014 at 6:14:59 PM

Latest Report: Sep 17, 2014 at 5:50 PM


Visibility: N/A

Pressure: 29.98 "Hg

Humidity: 60%

Dew point: 52 °F

Location of SonnebergLocation

Historic Weather in Sonneberg — Graph

°F

Sonneberg temperature yesterday

Maximum temperature yesterday: 70 °F (at 1:50 PM)
Minimum temperature yesterday: 52 °F (at 12:50 AM)
Average temperature yesterday: 59 °F

Past Weeks' High & Low Weather Summary

 TemperatureHumidityPressure
High75 °F (Sep 5, 2:20 PM)94% (Sep 2, 7:20 PM)30.24 "Hg (Sep 2, 7:20 PM)
Low45 °F (Sep 11, 3:50 AM)44% (Sep 7, 2:50 PM)29.92 "Hg (Sep 12, 7:50 AM)
Average58 °F85%30.06 "Hg
* Reported Sep 2 5:20 PM — Sep 17 5:20 PM, Sonneberg, Weather by CustomWeather, © 2014

Note: Actual official high and low records may vary slightly from our data, if they occured in-between our weather recording intervals... More about our weather records

Advertising

Sonneberg weather history for previous 24 hours

 ConditionsComfort  
Time TempWeatherWind HumidityBarometerVisibility
5:20 PM
Sep 17
68 °FPassing clouds.9 mph56%29.98 "HgN/A
4:50 PM68 °FPassing clouds.6 mph56%29.98 "HgN/A
4:20 PM68 °FPassing clouds.8 mph56%29.98 "HgN/A
3:50 PM68 °FPassing clouds.8 mph56%29.98 "HgN/A
3:20 PM68 °FPassing clouds.8 mph56%29.98 "HgN/A
2:50 PM68 °FPassing clouds.8 mph60%29.98 "HgN/A
2:20 PM68 °FPassing clouds.7 mph56%30.01 "HgN/A
1:50 PM66 °FPassing clouds.6 mph60%30.01 "HgN/A
1:20 PM66 °FPassing clouds.8 mph64%30.01 "HgN/A
12:50 PM64 °FScattered clouds.7 mph68%30.01 "HgN/A
12:20 PM63 °FPartly sunny.8 mph68%30.01 "HgN/A
11:50 AM61 °FPartly sunny.9 mph77%30.01 "HgN/A
11:20 AM59 °FOvercast.7 mph77%30.04 "HgN/A
10:50 AM57 °FOvercast.7 mph82%N/AN/A
10:20 AM55 °FOvercast.8 mph88%30.04 "HgN/A
9:50 AM55 °FMostly cloudy.8 mph82%30.04 "HgN/A
9:20 AM55 °FLow clouds.7 mph88%30.04 "HgN/A
8:50 AM54 °FLow clouds.3 mph94%30.04 "HgN/A
8:20 AM54 °FLow clouds.6 mph94%30.04 "Hg6 mi
7:50 AM54 °FLow clouds.5 mph94%30.04 "Hg4 mi
7:20 AM54 °FLow clouds.3 mph94%30.04 "Hg4 mi
6:50 AM52 °FLow clouds.6 mph94%30.04 "Hg4 mi
6:20 AM50 °FFog.5 mph94%30.01 "Hg2 mi
5:50 AM50 °FFog.3 mph88%30.01 "Hg3 mi
5:20 AM48 °FFog.3 mph94%30.01 "Hg2 mi
4:50 AM52 °FFog.5 mph88%30.01 "HgN/A
4:20 AM54 °FCool.5 mph88%30.04 "HgN/A
3:50 AM54 °FCool.3 mph88%30.04 "HgN/A
3:20 AM55 °FCool.5 mph82%30.04 "HgN/A
2:50 AM54 °FCool.2 mph82%30.04 "HgN/A
2:20 AM55 °FCool.3 mph82%30.04 "HgN/A
1:50 AM55 °FCool.6 mph82%30.04 "HgN/A
1:20 AM55 °FCool.7 mph82%30.04 "HgN/A
12:50 AM57 °FFog.7 mph77%30.04 "HgN/A
12:20 AM55 °FFog.5 mph82%30.04 "HgN/A
11:50 PM
Sep 16
57 °FFog.8 mph77%30.04 "HgN/A
11:20 PM55 °FCool.7 mph82%30.07 "HgN/A
10:50 PM54 °FCool.5 mph88%30.07 "HgN/A
10:20 PM54 °FCool.3 mph88%30.07 "HgN/A
9:50 PM55 °FCool.5 mph88%30.07 "HgN/A
9:20 PM57 °FCool.5 mph77%30.07 "HgN/A
8:50 PM57 °FCool.3 mph77%30.07 "HgN/A
8:20 PM59 °FFog.5 mph72%30.04 "HgN/A
7:50 PM59 °FSunny.6 mph72%30.04 "Hg10 mi
7:20 PM61 °FSunny.7 mph72%30.04 "Hg10 mi
6:50 PM64 °FPassing clouds.6 mph64%30.04 "HgN/A
6:20 PM66 °FPassing clouds.7 mph60%30.04 "HgN/A
Weather by CustomWeather, © 2014

See weather overviewHow to use our weather pages